[ ตารางข้อมูล ] [ Min-Max ] [ วันนี้2 ] [ วันนี้4 ] [ เทียบ-A 3วัน ] [ เทียบ-B 4วัน ]   

วันนี้4   [ ◀ ช่วงเก่ากว่า ] [ ช่วงที่ 16 ] [ ช่วงใหม่กว่า ▶ ] [ ล่าสุด ]    [ 3 ชั่วโมง ] [ 6 ชั่วโมง ] [ 12 ชั่วโมง ] [ 24 ชั่วโมง ]   วันนี้4

อุณภูมิในตู้ Knockdown4529  ราย 24 ชั่วโมง  ที่วัดได้ ในช่วงวันเวลา 15/08/2026 (19:02) ถึง 16/08/2026 (19:02) 
ความชื้นในตู้ Knockdown4529  ราย 24 ชั่วโมง  ที่วัดได้ ในช่วงวันเวลา 15/08/2026 (19:02) ถึง 16/08/2026 (19:02) 
การใช้ไฟฟ้าในตู้ Knockdown4529  ราย 24 ชั่วโมง  ที่วัดได้ ในช่วงวันเวลา 15/08/2026 (19:02) ถึง 16/08/2026 (19:02) 

  DS18B20SHTC3PZEM-004TWiFi 
IDDate d/m/Y & Timedata1
สูง
data2
ต่ำ
data3
นอก
temp
pcb
hum
pcb
VoltAmpWattrssiTime
 13212  16/08/2026 18:59:26  29.1  29.1  27.6  30.1  67.0  230.0  0.04  4.6  -76  18:59 
 13211  16/08/2026 18:54:43  29.1  29.1  27.5  30.1  67.0  229.7  0.04  4.6  -77  18:54 
 13210  16/08/2026 18:49:59  29.1  29.2  27.6  30.2  67.2  229.8  0.04  4.6  -75  18:49 
 13209  16/08/2026 18:45:16  29.1  29.2  27.6  29.9  67.0  225.0  0.04  4.6  -74  18:45 
 13208  16/08/2026 18:40:33  29.1  29.2  27.7  30.1  67.1  230.3  0.04  4.6  -77  18:40 
 13207  16/08/2026 18:35:50  29.1  29.2  27.6  30.2  67.2  229.3  0.04  4.6  -74  18:35 
 13206  16/08/2026 18:31:07  29.1  29.2  27.5  30.1  67.2  228.2  0.04  4.6  -74  18:31 
 13205  16/08/2026 18:26:23  29.2  29.2  27.6  30.1  67.1  228.0  0.04  4.6  -75  18:26 
 13204  16/08/2026 18:21:40  29.2  29.2  27.4  30.4  67.0  229.9  0.04  4.6  -74  18:21 
 13203  16/08/2026 18:16:57  29.2  29.2  27.3  30.1  66.9  229.8  0.04  4.6  -75  18:16 
 13202  16/08/2026 18:12:13  29.2  29.2  27.4  30.1  67.0  229.6  0.04  4.6  -74  18:12 
 13201  16/08/2026 18:07:30  29.2  29.2  27.4  30.3  67.1  229.2  0.04  4.6  -76  18:07 
 13200  16/08/2026 18:02:46  29.3  29.3  27.5  30.2  66.9  229.0  0.04  4.6  -75  18:02 
 13199  16/08/2026 17:58:03  29.4  29.3  27.5  30.4  66.8  227.4  0.04  4.6  -76  17:58 
 13198  16/08/2026 17:53:20  29.4  29.3  27.5  30.4  66.8  228.5  0.04  4.4  -76  17:53 
 13197  16/08/2026 17:48:36  29.4  29.3  27.5  30.4  66.7  230.5  0.04  4.4  -78  17:48 
 13196  16/08/2026 17:43:53  29.4  29.3  27.7  30.4  66.8  230.7  0.04  4.4  -75  17:43 
 13195  16/08/2026 17:39:10  29.5  29.3  27.8  30.4  66.7  227.9  0.04  4.4  -76  17:39 
 13194  16/08/2026 17:34:26  29.5  29.4  27.5  30.4  66.8  229.0  0.04  4.4  -76  17:34 
 13193  16/08/2026 17:29:42  29.5  29.4  27.7  30.5  66.7  231.6  0.04  4.4  -74  17:29 
 13192  16/08/2026 17:24:59  29.5  29.4  27.9  30.5  66.6  231.8  0.04  4.4  -77  17:24 
 13191  16/08/2026 17:20:15  29.6  29.4  28.0  30.4  66.5  231.6  0.04  4.4  -76  17:20 
 13190  16/08/2026 17:15:31  29.5  29.4  28.0  30.4  66.7  230.3  0.04  4.6  -76  17:15 
 13189  16/08/2026 17:10:48  29.6  29.4  27.9  30.4  66.7  231.7  0.04  4.6  -76  17:10 

Data every 5 minute.


ใช้เวลาประมวลผล 0.01978 วินาที